Pierre, SD

7:05 AM CDT on October 18, 2017 (GMT -0500)
Pierre Regional

Weather History for KPIR - April, 2013

Change the Weather History Date:

Sunday, April 7, 2013

  Actual Average Record
Temperature  
Mean Temperature 40 °F 43 °F  
Max Temperature 53 °F 56 °F 88 °F (1988)
Min Temperature 27 °F 31 °F 8 °F (1936)
Degree Days  
Heating Degree Days 25 22  
Month to date heating degree days 162 161  
Since 1 July heating degree days 6687 6606  
Cooling Degree Days 0 0  
Month to date cooling degree days 0 0  
Year to date cooling degree days 0 0  
Moisture  
Dew Point 32 °F    
Average Humidity 77    
Maximum Humidity 100    
Minimum Humidity 54    
Precipitation  
Precipitation T in 0.05 in 0.85 in (1919)
Month to date precipitation 0.01 0.34  
Year to date precipitation 1.82 2.58  
Snow  
Snow T in 0.20 in 3.00 in (1982)
Month to date snowfall T 1.2  
Since 1 July snowfall 34.7 29.0  
Snow Depth 0.00 in    
Sea Level Pressure  
Sea Level Pressure 29.77 in    
Wind  
Wind Speed 10 mph (East)    
Max Wind Speed 16 mph    
Max Gust Speed 20 mph    
Visibility 5 miles    
Events      
T = Trace of Precipitation, MM = Missing Value Source: NWS Daily Summary

Daily Weather History Graph

Daily Weather History Graph

Search for Another Location

Airport or City:

Trip Planner

Search our weather history database for the weather conditions in past years. The results will help you decide how hot, cold, wet, or windy it might be!

Date:

Astronomy

Apr. 07, 2013 Rise Set
Actual Time 7:10 AM CDT 8:16 PM CDT
Civil Twilight 6:41 AM CDT 8:46 PM CDT
Nautical Twilight 6:05 AM CDT 9:21 PM CDT
Astronomical Twilight 5:28 AM CDT 9:59 PM CDT
Moon 5:35 AM CDT (4/7) 5:45 PM CDT (4/7)
Length of Visible Light 14h 04m
Length of Day
13h 05m
Waning Crescent, 8% of the Moon is Illuminated
Apr 7
Waning Crescent
Apr 10
New
Apr 18
First Quarter
Apr 25
Full
May 2
Last Quarter

Hourly Weather History & Observations

Time (CDT) Temp. Windchill Dew Point Humidity Pressure Visibility Wind Dir Wind Speed Gust Speed Precip Events Conditions
12:53 AM 32.0 °F 24.8 °F 28.9 °F 88% 29.85 in 7.0 mi East 8.1 mph - N/A   Clear
1:53 AM 28.9 °F 23.9 °F 27.0 °F 92% 29.85 in 6.0 mi East 4.6 mph - N/A   Clear
2:49 AM 28.4 °F 23.3 °F 26.6 °F 93% 29.84 in 5.0 mi ENE 4.6 mph - N/A   Scattered Clouds
2:53 AM 28.9 °F 21.9 °F 27.0 °F 92% 29.86 in 5.0 mi ENE 6.9 mph - N/A   Mostly Cloudy
3:08 AM 30.2 °F 21.9 °F 28.4 °F 93% 29.83 in 4.0 mi East 9.2 mph - N/A   Overcast
3:25 AM 30.2 °F 21.3 °F 30.2 °F 100% 29.81 in 2.0 mi East 10.4 mph - N/A   Overcast
3:36 AM 30.2 °F 21.3 °F 30.2 °F 100% 29.82 in 1.2 mi East 10.4 mph - N/A   Overcast
3:53 AM 30.9 °F 21.7 °F 30.0 °F 96% 29.83 in 1.0 mi East 11.5 mph - N/A   Mist
4:53 AM 32.0 °F 23.0 °F 30.9 °F 96% 29.81 in 1.2 mi East 11.5 mph - N/A   Overcast
5:45 AM 32.0 °F 24.2 °F 30.2 °F 93% 29.81 in 2.0 mi East 9.2 mph - N/A   Overcast
5:53 AM 32.0 °F 23.6 °F 32.0 °F 100% 29.82 in 2.0 mi ENE 10.4 mph - N/A   Overcast
6:53 AM 32.0 °F 23.0 °F 30.9 °F 96% 29.82 in 3.0 mi ENE 11.5 mph - N/A   Overcast
7:08 AM 32.0 °F 23.0 °F 30.2 °F 93% 29.81 in 2.5 mi East 11.5 mph - N/A   Overcast
7:36 AM 32.0 °F 22.5 °F 30.2 °F 93% 29.80 in 1.5 mi East 12.7 mph - N/A   Overcast
7:53 AM 32.0 °F 21.6 °F 30.9 °F 96% 29.81 in 0.8 mi East 15.0 mph - N/A   Overcast
8:07 AM 32.0 °F 21.6 °F 30.2 °F 93% 29.80 in 1.0 mi East 15.0 mph - N/A   Overcast
8:53 AM 32.0 °F 23.0 °F 30.9 °F 96% 29.83 in 1.8 mi East 11.5 mph - N/A   Overcast
9:05 AM 32.0 °F 23.0 °F 30.2 °F 93% 29.80 in 2.5 mi East 11.5 mph - 0.00 in   Overcast
9:25 AM 32.0 °F 23.0 °F 30.2 °F 93% 29.80 in 3.0 mi East 11.5 mph - 0.00 in   Overcast
9:36 AM 32.0 °F 22.5 °F 30.2 °F 93% 29.79 in 2.5 mi East 12.7 mph - 0.00 in   Overcast
9:45 AM 33.8 °F 24.8 °F 30.2 °F 87% 29.79 in 3.0 mi East 12.7 mph - 0.00 in   Overcast
9:53 AM 33.1 °F 24.4 °F 30.9 °F 92% 29.81 in 4.0 mi East 11.5 mph - 0.00 in   Overcast
10:53 AM 34.0 °F 26.6 °F 32.0 °F 92% 29.82 in 4.0 mi East 9.2 mph - N/A   Overcast
11:33 AM 35.6 °F 29.2 °F 32.0 °F 87% 29.78 in 7.0 mi East 8.1 mph - N/A   Overcast
11:53 AM 36.0 °F 28.5 °F 32.0 °F 86% 29.82 in 7.0 mi East 10.4 mph - N/A   Overcast
12:53 PM 37.9 °F 31.5 °F 33.1 °F 83% 29.80 in 7.0 mi East 9.2 mph - N/A   Overcast
1:21 PM 39.2 °F 33.0 °F 33.8 °F 81% 29.73 in 8.0 mi East 9.2 mph - N/A   Overcast
1:53 PM 42.1 °F 35.7 °F 34.0 °F 73% 29.75 in 9.0 mi East 11.5 mph - N/A   Overcast
2:27 PM 44.6 °F 40.2 °F 35.6 °F 71% 29.69 in 10.0 mi SE 8.1 mph 16.1 mph N/A   Overcast
2:50 PM 44.6 °F 40.7 °F 35.6 °F 71% 29.69 in 9.0 mi SSE 6.9 mph - N/A   Partly Cloudy
2:53 PM 46.0 °F 40.6 °F 35.1 °F 66% 29.73 in 10.0 mi SSE 11.5 mph 17.3 mph N/A   Partly Cloudy
3:53 PM 50.0 °F - 36.0 °F 59% 29.71 in 10.0 mi ESE 10.4 mph - N/A   Mostly Cloudy
4:53 PM 51.1 °F - 36.0 °F 56% 29.68 in 10.0 mi East 9.2 mph - N/A   Clear
5:53 PM 51.1 °F - 37.0 °F 59% 29.66 in 10.0 mi East 5.8 mph - N/A   Clear
6:53 PM 53.1 °F - 37.9 °F 57% 29.64 in 10.0 mi East 10.4 mph - N/A   Clear
7:53 PM 48.0 °F - 37.0 °F 66% 29.65 in 10.0 mi NE 8.1 mph - N/A   Clear
8:53 PM 42.1 °F 38.4 °F 35.1 °F 76% 29.65 in 9.0 mi ENE 5.8 mph - N/A   Clear
9:53 PM 39.0 °F 34.0 °F 34.0 °F 82% 29.66 in 9.0 mi NE 6.9 mph - N/A   Clear
10:53 PM 39.0 °F 32.3 °F 35.1 °F 86% 29.67 in 8.0 mi NNE 10.4 mph - N/A   Partly Cloudy
11:53 PM 39.9 °F 33.9 °F 37.0 °F 89% 29.65 in 6.0 mi ENE 9.2 mph - N/A   Partly Cloudy